GEFSNGP_con_prob3kmehi_186.txt.gz
EHI
0 0 0 0 0 0 1 0 0 1 3 9 15 18 18 17 17 19 21 21 21 20 21 25 30 31 28 26 26 28 31 32 32 33 33 30 24 18 11 6 4 2 1 0
0 0 0 0 0 0 1 1 1 2 4 9 17 22 22 21 21 21 21 22 21 21 23 27 30 31 28 28 31 34 36 36 36 35 34 29 23 18 13 10 8 6 3 1
0 0 0 0 0 0 1 2 1 2 4 10 17 21 22 21 20 20 19 18 18 20 24 26 28 30 29 31 35 39 40 39 38 38 36 29 23 20 18 16 13 9 4 2
0 0 0 0 0 0 1 2 2 3 6 10 13 16 18 18 16 15 13 13 14 17 21 23 24 27 28 30 33 37 40 40 39 39 36 30 26 23 21 20 15 9 4 3
0 0 0 0 0 0 0 1 2 5 8 10 11 13 15 16 16 14 12 13 15 18 22 25 25 26 28 31 33 35 38 39 39 37 35 31 26 23 22 20 14 8 5 4
0 0 0 0 0 0 0 0 1 6 11 12 11 11 13 16 19 20 19 19 21 23 27 30 30 29 31 33 35 36 38 38 39 37 35 31 25 21 20 19 14 9 7 5
0 0 0 0 0 0 0 0 2 7 13 14 11 11 14 17 19 23 24 23 23 25 27 29 30 31 33 34 36 38 39 40 40 37 33 28 24 20 19 17 13 10 8 7
0 0 0 0 0 0 0 0 2 8 13 15 13 13 14 17 18 20 22 23 22 22 22 21 23 26 29 31 32 34 37 39 37 34 31 28 25 22 19 16 12 9 8 7
0 0 0 0 1 1 0 1 4 9 12 14 14 13 12 12 15 17 19 21 21 19 18 15 15 19 21 23 25 26 28 31 31 29 28 27 26 25 22 17 13 10 8 8
0 0 0 1 2 2 2 4 7 9 10 11 11 10 9 8 11 15 17 19 19 17 14 12 12 14 16 18 20 20 21 24 24 24 25 24 23 22 20 18 16 13 11 11
0 0 0 2 3 3 5 7 8 8 8 8 8 8 9 8 9 11 13 14 15 14 12 11 12 13 15 17 18 17 18 20 20 19 20 19 16 14 12 11 12 11 11 13
0 0 0 1 2 3 4 6 6 6 6 6 7 8 9 9 8 7 7 8 10 11 10 11 12 13 14 14 15 15 17 17 16 14 13 13 12 10 6 3 4 4 6 7
0 0 0 0 1 1 2 3 3 3 4 5 6 8 9 8 7 6 5 6 7 8 9 10 12 13 12 11 11 12 12 12 11 8 7 7 8 8 5 2 1 1 1 1
0 0 0 0 0 0 1 1 1 1 1 2 4 6 7 7 6 6 6 6 7 7 8 9 11 11 10 9 8 8 7 7 6 4 3 3 4 5 4 4 3 2 1 0
0 0 0 0 0 0 0 0 0 0 0 0 1 2 4 5 5 5 6 6 6 6 7 8 10 9 7 6 6 5 4 4 3 1 1 0 1 1 1 2 3 3 2 1
0 0 0 0 0 0 0 0 0 0 0 0 0 0 1 1 2 2 4 5 5 5 5 7 8 7 6 4 4 3 3 3 1 1 0 0 0 0 0 0 1 3 2 1
0 0 0 0 0 0 0 0 0 0 0 0 0 0 0 0 0 0 1 2 2 2 3 4 5 5 5 4 3 3 3 2 1 1 0 0 0 0 0 0 1 2 2 1
0 0 0 0 0 0 0 0 0 0 0 0 0 0 0 0 0 0 0 0 1 1 2 3 3 4 4 3 3 3 3 2 1 0 0 0 0 0 0 0 0 1 1 0
0 0 0 0 0 0 0 0 0 0 0 0 0 0 0 0 0 0 1 1 2 3 3 3 3 3 3 3 3 3 2 1 0 0 0 0 0 0 0 0 0 0 0 0
0 0 0 0 0 0 0 0 0 0 0 0 0 0 0 0 0 0 1 2 2 2 2 3 3 3 3 3 2 2 1 0 0 0 0 0 0 0 0 0 0 0 0 0
0 0 0 0 0 0 0 0 0 0 0 0 0 0 0 0 0 0 1 1 1 1 1 1 2 2 2 1 1 1 1 0 0 0 0 0 0 0 0 0 0 0 0 0
0 0 0 0 0 0 0 0 0 0 0 0 0 0 0 0 0 0 0 0 0 0 0 0 1 1 1 1 2 2 2 1 0 0 0 0 0 0 0 0 0 0 0 0
0 0 0 0 0 0 0 0 0 0 0 0 0 0 0 0 0 0 0 0 0 0 0 0 0 0 0 1 2 3 3 2 1 0 0 0 0 0 0 0 0 0 0 0
0 0 0 0 0 0 0 0 0 0 0 0 0 0 0 0 0 0 0 0 0 0 0 0 0 0 0 0 1 1 2 2 1 0 0 0 0 0 0 0 0 0 0 0
0 0 0 0 0 0 0 0 0 0 0 0 0 0 0 0 0 0 0 0 0 0 0 0 0 0 0 0 0 0 1 1 1 0 0 0 0 0 0 0 0 0 0 0
0 0 0 0 0 0 0 0 0 0 0 0 0 0 0 0 0 0 0 0 0 0 0 0 0 0 0 0 0 0 0 0 0 0 0 0 0 0 0 0 0 0 0 0
0 0 0 0 0 0 0 0 0 0 0 0 0 0 0 0 0 0 0 0 0 0 0 0 0 0 0 0 0 0 0 0 0 0 0 0 0 0 0 0 0 0 0 0

GEFSNGP_con_prob3kmehi_192.txt.gz
EHI
0 0 0 0 0 0 0 0 0 1 5 15 24 31 35 37 39 43 49 53 54 55 59 65 66 64 61 60 62 61 58 54 51 48 49 51 53 53 51 48 46 45 40 35
0 0 0 0 0 0 0 0 0 2 7 16 25 33 37 39 40 42 47 53 55 53 53 55 59 61 59 58 61 61 59 56 54 52 53 55 55 55 54 51 48 46 42 37
0 0 0 0 0 0 0 0 2 5 10 16 26 34 38 40 42 45 49 54 55 53 49 49 52 57 58 58 59 60 59 56 55 55 56 57 57 56 55 52 50 47 43 39
0 0 0 0 0 0 0 1 4 8 12 18 27 34 37 40 43 48 52 55 54 51 48 48 52 56 58 57 57 56 55 54 54 54 55 55 55 54 53 52 51 47 41 37
0 0 0 0 0 1 1 2 5 9 13 20 26 31 35 39 43 46 51 53 50 46 45 48 53 58 59 56 54 53 53 53 54 54 53 52 50 49 48 49 49 46 39 34
0 0 0 1 1 2 2 3 6 10 15 20 23 28 35 39 42 44 46 45 43 40 41 46 50 54 56 54 52 52 51 51 52 53 51 48 46 44 44 44 44 42 36 31
0 0 0 2 3 5 6 7 10 14 18 22 26 33 38 39 40 40 38 35 33 31 35 40 43 45 48 48 48 49 50 49 49 49 46 42 41 40 40 40 39 37 34 30
0 0 1 3 6 10 14 14 14 18 23 27 33 38 39 38 36 32 28 26 24 23 26 33 36 36 37 39 40 42 45 47 46 44 40 37 36 37 38 38 36 33 31 30
2 4 6 7 10 16 20 20 18 20 24 29 34 36 35 33 29 24 20 20 19 18 21 26 30 31 31 33 35 36 37 38 38 38 36 35 34 35 37 38 35 32 30 30
7 8 10 12 15 21 23 20 18 19 23 27 29 31 30 27 22 18 17 17 19 20 20 21 23 26 27 30 33 34 32 31 30 31 32 33 32 32 33 34 34 32 30 28
10 11 11 13 17 22 23 19 16 18 21 23 23 24 23 20 16 14 15 17 20 20 19 17 17 18 22 27 31 32 30 28 26 25 27 29 28 25 25 24 24 24 23 22
10 10 10 12 15 18 20 19 17 17 18 17 15 15 14 13 11 11 14 17 18 17 14 12 12 14 18 22 26 28 28 26 24 23 24 25 24 20 15 12 10 9 10 11
9 9 10 11 12 13 14 14 14 13 11 9 8 8 8 8 8 10 13 14 13 11 10 9 10 12 14 18 21 23 24 23 22 22 22 22 21 17 12 6 3 2 2 2
6 6 7 7 7 6 6 6 6 6 5 5 5 5 6 6 6 7 9 9 8 7 8 10 11 12 13 15 16 17 19 20 20 19 20 20 18 15 11 7 4 3 1 0
2 2 2 3 3 2 1 1 1 1 2 3 3 3 4 5 6 6 6 5 5 6 7 9 11 11 12 13 13 12 14 16 16 17 18 18 15 12 9 6 5 4 2 1
0 0 0 1 2 2 1 0 0 0 1 1 1 1 3 5 7 8 7 6 6 6 6 7 8 9 10 11 11 11 11 12 12 13 14 13 10 8 6 5 4 3 2 1
0 1 1 2 2 2 1 0 0 0 0 0 0 0 2 4 5 7 7 7 7 6 5 6 7 7 7 9 11 11 10 9 9 9 8 7 5 5 4 4 4 3 2 1
0 1 2 2 1 1 0 0 0 0 0 0 0 1 2 3 3 4 5 4 3 2 2 3 5 5 6 7 9 10 8 8 7 5 4 3 3 4 4 4 3 3 2 1
1 1 1 1 0 0 0 0 0 0 0 0 0 1 2 2 1 1 1 1 0 0 0 1 1 2 3 5 6 6 5 5 4 4 3 3 3 3 4 3 3 3 2 1
0 0 0 0 0 0 0 0 0 0 0 0 0 1 1 1 0 0 0 0 0 0 0 0 0 0 1 3 4 4 3 3 3 3 3 3 3 3 3 3 3 3 2 1
0 0 0 0 0 0 0 0 0 0 0 0 0 0 0 0 0 0 0 0 0 0 0 0 0 0 1 2 3 3 3 3 3 3 3 3 3 3 3 3 1 1 1 1
0 0 0 0 0 0 0 0 0 0 0 0 0 0 0 0 0 0 0 0 0 0 0 0 0 0 1 1 3 3 3 3 3 3 2 3 3 3 2 2 1 0 0 0
0 0 0 0 0 0 0 0 0 0 0 0 0 0 0 0 0 0 0 0 0 0 0 0 0 0 0 1 2 2 2 2 2 1 1 1 2 1 1 1 0 0 0 0
0 0 0 0 0 0 0 0 0 0 0 0 0 0 0 0 0 0 0 0 0 0 0 0 0 0 0 0 1 1 1 1 1 0 0 0 0 0 0 0 0 0 0 0
1 1 0 0 0 0 0 0 0 0 0 0 0 0 0 0 0 0 0 0 0 0 0 0 0 0 0 0 0 0 0 0 0 0 0 0 0 0 0 0 0 0 0 0
0 0 0 0 0 0 0 0 0 0 0 0 0 0 0 0 0 0 0 0 0 0 0 0 0 0 0 0 0 0 0 0 0 0 0 0 0 0 0 0 0 0 0 0
0 0 0 0 0 0 0 0 0 0 0 0 0 0 0 0 0 0 0 0 0 0 0 0 0 0 0 0 0 0 0 0 0 0 0 0 0 0 0 0 0 0 0 0

GEFSNGP_con_prob3kmehi_198.txt.gz
EHI
0 0 0 0 0 0 0 0 2 8 15 22 25 26 30 37 47 57 64 68 74 80 84 86 85 80 76 75 78 79 79 80 81 81 78 73 65 63 63 61 58 57 55 52
0 0 0 0 0 0 0 0 3 9 17 24 29 31 35 41 51 57 62 66 72 76 80 83 83 79 75 74 76 77 78 78 79 77 74 69 65 63 62 60 57 55 53 51
0 0 0 0 0 0 0 1 4 10 17 26 34 39 41 47 55 58 59 62 66 68 70 73 74 73 72 71 71 73 76 75 74 71 67 66 65 63 61 58 55 53 52 51
0 0 0 0 1 2 1 2 6 13 20 29 36 41 43 47 52 55 56 58 59 59 60 60 63 67 69 68 67 69 71 70 67 64 62 63 63 61 58 55 53 52 51 52
0 0 0 0 1 2 3 4 9 17 24 29 33 37 41 43 45 48 51 52 52 53 54 55 59 65 67 65 62 64 66 66 62 59 58 59 58 57 55 53 52 51 50 52
0 0 0 0 1 2 4 8 14 20 25 28 32 37 40 41 41 43 43 43 44 47 50 52 57 63 65 61 56 58 61 61 57 54 54 53 53 54 53 51 49 48 48 50
0 0 1 3 5 7 9 14 20 25 30 35 40 43 43 42 43 41 39 37 36 38 42 46 52 58 59 56 51 50 52 50 48 47 46 47 50 52 51 48 45 45 45 46
1 2 6 11 14 16 17 20 24 30 35 41 44 45 43 42 41 37 35 33 31 32 36 40 44 48 51 50 45 41 40 39 40 41 41 42 46 47 46 43 41 40 40 40
4 7 12 17 19 21 22 22 24 28 32 36 38 39 38 37 34 30 29 30 29 28 30 33 35 38 42 42 38 35 34 34 34 37 39 40 40 40 39 37 35 34 35 35
7 10 13 17 19 20 20 19 19 21 25 28 31 32 32 32 30 27 27 27 26 24 25 26 26 29 35 37 36 35 36 36 33 33 35 35 33 31 30 29 29 29 31 31
11 11 13 16 19 18 16 16 16 19 22 25 26 27 26 27 27 26 25 24 23 23 23 22 21 23 28 34 37 38 38 37 32 29 29 28 25 21 18 17 19 22 25 27
15 16 15 16 18 17 15 15 18 21 23 24 24 24 23 23 22 22 22 21 21 21 20 17 16 19 24 30 34 36 35 32 28 24 24 23 20 15 10 7 8 10 14 18
17 17 16 15 16 17 16 17 19 21 24 24 23 23 20 17 15 16 17 17 17 16 14 13 13 16 21 24 27 30 27 24 22 21 20 18 17 13 9 5 4 4 5 5
14 14 13 12 13 14 14 15 17 20 21 21 20 18 14 11 10 11 12 14 14 13 12 12 12 15 17 18 20 21 19 16 16 18 18 16 15 13 11 8 7 5 3 1
10 10 10 10 10 10 9 11 13 15 15 14 11 9 7 6 7 8 9 11 11 11 11 11 12 13 14 14 14 14 13 12 14 16 17 16 14 12 12 11 10 8 5 2
6 6 7 7 7 6 6 6 7 8 8 6 3 2 3 5 7 8 7 6 6 7 7 8 10 11 11 11 10 9 9 9 11 14 15 15 14 11 10 10 9 8 7 5
2 2 3 5 5 4 4 4 4 4 3 3 1 1 3 6 7 8 7 6 5 4 4 5 8 10 12 11 9 7 7 7 8 10 12 12 11 10 9 8 8 8 7 5
0 1 3 4 5 4 5 5 4 4 5 5 3 3 4 6 7 8 8 7 6 5 5 5 6 9 10 11 9 8 6 5 5 6 7 8 8 8 7 7 7 7 6 4
0 1 3 5 5 6 7 7 6 6 7 6 5 4 4 4 6 6 6 5 5 6 6 5 5 6 6 8 9 8 6 4 3 4 5 6 7 7 7 6 6 6 5 4
1 2 4 4 5 6 7 7 7 6 6 5 4 3 3 3 4 4 3 2 3 4 4 4 4 3 3 5 6 7 5 4 3 3 4 5 6 6 6 5 4 4 5 5
2 3 4 3 4 4 4 5 5 4 3 3 3 2 3 3 3 3 2 1 2 2 1 1 1 1 2 3 4 4 3 3 2 2 3 4 4 4 4 4 3 3 4 4
3 4 3 3 2 1 1 2 2 1 1 1 1 1 3 4 4 3 2 1 1 1 0 0 0 0 0 1 1 1 1 1 1 1 1 2 3 3 3 3 3 3 3 3
4 3 2 2 1 0 0 0 0 0 0 0 1 2 3 4 3 2 2 1 0 0 0 0 0 0 0 0 0 0 0 0 0 0 0 1 2 3 3 3 3 3 3 3
4 4 2 0 0 0 0 0 0 0 0 0 1 2 2 2 1 1 1 0 0 0 0 0 0 0 0 0 0 0 0 0 0 1 1 2 3 3 3 4 3 3 3 3
4 4 2 0 0 0 0 0 0 0 0 0 0 1 1 0 0 0 0 0 0 0 0 0 0 0 0 0 0 0 0 0 0 1 2 4 4 3 3 3 3 3 3 4
3 3 2 0 0 0 0 0 0 0 0 0 0 0 0 0 0 0 0 0 0 0 0 0 0 0 0 0 0 0 0 0 0 1 1 3 3 1 1 1 1 2 3 3
2 2 2 1 0 0 0 0 0 0 0 0 0 0 0 0 0 0 0 0 0 0 0 0 0 0 0 0 0 0 0 0 0 0 0 1 1 0 0 0 0 1 2 3

GEFSNGP_con_prob3kmehi_204.txt.gz
EHI
0 0 0 0 0 0 0 0 1 3 6 11 17 22 28 35 39 42 45 45 41 36 34 35 34 35 38 41 46 51 54 53 51 47 41 33 27 26 26 26 26 22 16 15
0 0 0 0 0 0 1 2 3 6 9 13 18 22 28 36 40 42 45 44 40 35 32 31 31 33 35 36 40 47 51 50 49 46 41 34 29 27 27 26 26 23 18 15
0 0 0 0 0 1 2 4 6 10 13 16 20 23 27 34 38 40 42 41 37 33 30 28 27 29 30 29 32 39 44 45 45 45 42 38 34 30 29 27 27 25 20 17
0 0 0 0 0 1 3 7 11 15 19 23 26 27 28 30 32 36 39 39 36 34 32 29 25 24 25 25 28 33 37 38 39 42 43 40 37 34 32 29 28 26 23 20
0 0 0 0 0 1 5 11 17 21 26 29 32 33 31 29 30 32 34 35 34 34 34 30 26 23 23 24 26 29 30 31 33 36 39 38 37 36 34 31 29 28 25 23
0 0 0 1 2 3 7 14 19 22 25 29 31 32 29 27 27 29 29 28 28 29 30 28 25 23 22 21 21 22 23 24 27 31 33 33 33 33 32 31 30 27 24 23
0 0 0 2 3 4 7 12 16 17 19 23 26 27 25 23 23 24 24 22 21 22 22 21 20 19 17 15 14 14 16 19 23 28 29 27 27 27 27 28 28 25 20 19
0 0 1 2 3 4 6 10 12 11 12 17 21 21 20 18 17 17 17 16 15 14 13 12 12 11 11 10 10 9 10 14 18 22 24 22 20 20 21 22 22 19 16 15
2 2 2 3 4 6 8 11 11 9 9 12 15 16 14 12 12 12 12 11 10 9 7 5 5 5 5 6 7 7 7 9 12 15 17 16 14 13 14 14 13 12 11 11
5 5 4 4 5 8 11 13 12 10 9 11 12 11 9 7 7 7 7 7 6 5 3 1 1 1 1 2 4 4 4 5 8 10 11 11 9 7 7 7 7 6 6 6
5 6 5 5 5 8 12 14 13 11 10 11 11 8 5 4 3 2 2 2 2 2 1 0 0 0 0 0 1 1 1 3 6 7 7 7 6 4 2 2 3 3 2 2
2 3 4 4 5 7 10 12 11 10 9 9 8 5 2 1 0 0 0 0 0 0 0 0 0 0 0 0 0 0 0 1 3 4 5 6 5 3 1 0 1 1 1 1
0 1 3 3 3 5 7 8 8 7 7 6 4 3 1 1 0 0 0 0 0 0 0 0 0 0 0 0 0 0 0 0 1 1 3 4 5 4 2 1 0 0 0 0
0 1 1 2 2 3 4 5 5 5 5 4 2 2 2 1 0 0 0 1 1 0 0 0 0 0 0 0 0 0 0 0 0 1 2 3 5 5 4 2 1 0 0 0
1 1 1 1 2 3 3 3 3 3 3 2 1 1 1 1 1 1 1 2 1 0 0 0 0 0 0 0 0 0 0 0 0 0 1 3 4 5 5 3 1 0 0 0
2 2 2 1 2 2 2 2 1 1 1 1 0 0 0 1 2 2 2 2 1 0 0 0 0 0 0 0 0 0 0 0 0 0 1 2 4 5 5 3 1 0 0 0
2 1 1 0 1 1 1 1 0 0 0 0 0 0 1 2 3 2 1 1 0 0 0 0 0 0 0 0 0 0 0 0 0 0 1 2 4 5 4 3 1 1 1 0
1 0 0 0 0 1 1 1 0 0 0 0 0 0 1 2 2 1 0 0 0 0 0 0 0 0 0 0 0 0 0 0 0 0 1 2 3 4 3 3 3 2 2 1
0 0 0 0 1 2 2 1 0 0 0 0 0 0 1 1 1 0 0 0 0 0 0 0 0 0 0 0 0 0 0 0 0 0 1 2 3 3 3 3 3 3 3 3
0 0 0 1 2 2 1 0 0 0 0 0 0 0 0 0 0 0 0 0 0 0 0 0 0 0 0 0 0 0 0 0 0 0 1 3 3 3 3 3 3 3 3 3
0 0 0 1 1 1 0 0 0 0 0 0 0 0 0 0 0 0 0 0 0 0 0 0 0 0 0 0 0 0 0 0 0 1 2 3 3 3 3 3 3 3 3 3
0 0 0 0 0 0 0 0 0 0 0 0 0 0 0 0 0 0 0 0 0 0 0 0 0 0 1 1 1 1 1 1 1 2 3 3 3 3 3 3 3 3 3 2
0 0 0 0 0 0 0 0 0 0 0 0 0 0 0 0 0 0 0 0 0 0 0 0 0 0 1 1 2 2 2 2 2 2 2 2 3 3 3 3 2 2 1 1
0 0 0 0 0 0 0 0 0 0 0 0 0 0 0 0 0 0 0 0 0 0 0 0 0 0 0 1 1 1 1 1 1 1 1 1 1 2 2 1 1 1 0 0
0 0 0 0 0 0 0 0 0 0 0 0 0 0 0 0 0 0 0 0 0 0 0 0 0 0 0 0 0 0 0 0 0 0 0 0 0 1 1 0 0 0 0 0
0 0 0 0 0 0 0 0 0 0 0 0 0 0 0 0 0 0 0 0 0 0 0 0 0 0 0 0 0 0 0 0 0 0 0 0 0 0 0 0 0 0 0 0
0 0 0 0 0 0 0 0 0 0 0 0 0 0 0 0 0 0 0 0 0 0 0 0 0 0 0 0 0 0 0 0 0 0 0 0 0 0 0 0 0 0 0 0

GEFSNGP_con_prob3kmehi_210.txt.gz
EHI
0 0 0 0 0 0 0 0 0 0 1 2 5 10 14 16 18 19 15 14 20 26 29 28 25 25 29 32 31 31 30 30 30 30 30 30 27 24 19 14 11 11 10 9
0 0 0 0 0 0 0 0 0 0 1 3 7 11 14 16 17 17 16 16 19 24 26 25 23 22 25 29 30 29 27 25 24 23 24 24 24 23 21 17 14 12 10 9
0 0 0 0 0 0 0 0 0 0 2 6 11 13 14 16 17 19 20 19 19 21 22 21 21 20 22 25 27 25 21 19 17 16 18 18 19 20 20 18 16 14 12 10
0 0 0 0 0 0 0 0 1 2 5 10 14 15 14 16 19 21 22 21 20 19 19 19 20 20 20 21 22 21 18 15 13 13 15 17 17 17 16 16 17 16 14 13
0 0 0 0 0 0 0 1 3 7 11 15 17 16 14 15 17 18 18 19 20 20 19 18 18 19 19 19 18 17 15 12 10 11 12 14 16 14 14 15 17 16 14 13
0 0 0 0 0 1 0 1 4 11 16 17 16 14 13 15 17 16 16 17 19 19 18 16 14 15 16 17 16 14 12 11 10 10 10 12 12 12 11 12 14 14 13 12
0 0 0 0 0 0 0 1 4 10 14 15 14 13 13 16 18 18 17 17 16 14 12 10 9 10 11 12 12 10 9 9 9 9 9 9 9 9 9 9 12 15 14 14
0 0 0 0 0 0 0 1 4 7 9 10 11 14 16 17 17 18 18 15 12 9 6 4 5 5 6 7 8 7 7 7 8 8 7 7 7 9 9 10 12 15 15 13
1 1 1 0 0 0 1 3 5 5 5 7 8 11 14 14 13 14 14 11 7 5 3 3 3 4 4 4 5 5 5 5 6 7 7 6 7 9 11 12 15 15 13 10
3 3 3 1 0 0 1 4 6 5 5 6 6 7 8 8 7 8 8 6 3 2 3 3 3 3 2 2 2 3 3 4 5 5 6 5 5 7 9 13 15 13 9 7
3 4 3 2 0 0 1 4 5 5 6 6 5 4 4 4 3 3 3 2 1 1 2 2 2 1 1 1 0 1 1 2 3 2 2 2 2 3 5 8 9 7 5 4
1 1 1 1 0 0 1 2 4 5 6 5 4 3 2 2 1 1 0 0 0 1 1 1 1 0 0 0 0 0 0 1 1 0 0 0 0 0 1 2 2 2 1 1
0 0 0 0 0 0 0 1 2 3 4 3 2 1 1 1 0 0 0 0 0 0 0 0 0 0 0 0 0 0 0 0 0 0 0 0 0 0 0 0 0 0 0 0
0 0 0 0 0 0 0 0 1 1 1 1 1 0 0 0 0 0 0 0 0 0 0 0 0 0 0 0 0 0 0 0 0 0 0 0 0 0 0 1 1 1 1 0
0 0 0 0 0 0 0 0 0 0 0 0 0 0 0 0 0 0 0 0 0 0 0 0 0 0 0 0 0 0 0 0 0 0 0 0 0 0 0 1 2 3 2 1
0 0 0 0 0 0 0 0 0 0 0 0 0 0 0 0 0 0 0 0 0 0 0 0 0 0 0 0 0 0 0 0 0 0 0 0 0 0 0 1 2 3 3 2
0 0 0 0 0 0 0 0 0 0 0 0 0 0 0 0 0 0 0 0 0 0 0 0 0 0 0 0 0 0 0 0 0 0 0 0 0 0 0 0 1 3 3 2
0 0 0 0 0 0 0 0 0 0 0 0 0 0 0 0 0 0 0 0 0 0 0 0 0 0 0 0 0 0 0 0 0 0 0 0 0 0 0 0 1 2 3 2
0 0 0 0 0 0 0 0 0 0 0 0 0 0 0 0 0 0 0 0 0 0 0 0 0 0 0 0 0 0 0 0 0 0 0 0 0 0 0 0 1 2 3 3
0 0 0 0 0 0 0 0 0 0 0 0 0 0 0 0 0 0 0 0 0 0 0 0 0 0 0 0 0 0 0 0 0 0 0 0 0 0 0 0 0 1 3 3
0 0 0 0 0 0 0 0 0 0 0 0 0 0 0 0 0 0 0 0 0 0 0 0 0 0 0 0 0 0 0 0 0 0 0 0 0 0 0 0 0 1 2 3
0 0 0 0 0 0 0 0 0 0 0 0 0 0 0 0 0 0 0 0 0 0 0 0 0 0 0 0 0 0 0 0 0 0 0 0 0 0 0 0 0 1 2 3
0 0 0 0 0 0 0 0 0 0 0 0 0 0 0 0 0 0 0 0 0 0 0 0 0 0 0 0 0 0 0 0 0 0 0 0 0 0 0 0 0 1 2 3
0 0 0 0 0 0 0 0 0 0 0 0 0 0 0 0 0 0 0 0 0 0 0 0 0 0 0 0 0 0 0 0 0 0 0 0 0 0 0 0 0 1 2 3
0 0 0 0 0 0 0 0 0 0 0 0 0 0 0 0 0 0 0 0 0 0 0 0 0 0 0 0 0 0 0 0 0 0 0 0 0 0 0 0 0 1 3 3
0 0 0 0 0 0 0 0 0 0 0 0 0 0 0 0 0 0 0 0 0 0 0 0 0 0 0 0 0 0 0 0 0 0 0 0 0 0 0 0 0 1 2 2
0 0 0 0 0 0 0 0 0 0 0 0 0 0 0 0 0 0 0 0 0 0 0 0 0 0 0 0 0 0 0 0 0 0 0 0 0 0 0 0 0 1 1 1

GEFSNGP_con_prob3kmehi_216.txt.gz
EHI
0 0 0 0 0 0 0 0 0 0 3 8 12 14 14 15 19 22 25 30 35 37 38 41 45 45 43 43 45 50 55 56 53 52 51 52 50 45 42 41 39 39 38 37
0 0 0 0 0 0 0 1 1 2 8 14 16 16 14 14 18 22 25 30 33 33 34 37 41 42 41 43 43 46 49 49 48 49 50 50 47 44 43 42 41 40 38 37
0 0 0 0 1 1 1 1 2 7 15 20 20 18 13 13 18 21 24 28 30 29 30 33 37 38 39 42 42 43 44 43 44 46 46 43 39 39 41 41 41 39 37 35
0 0 0 0 2 2 1 2 5 12 19 22 21 16 13 14 16 19 23 27 30 30 30 30 33 35 37 39 41 40 40 40 40 40 38 34 33 35 38 38 38 36 33 32
0 0 0 1 2 3 3 5 10 15 20 22 18 13 13 14 15 17 22 27 29 31 30 29 31 32 33 35 36 35 35 35 33 30 30 29 29 32 36 37 36 32 30 30
0 0 1 2 2 4 6 10 16 19 21 21 18 14 14 15 15 17 22 26 28 27 27 26 27 27 27 29 30 29 28 27 24 21 22 23 24 25 29 34 35 31 29 29
0 0 1 3 4 6 11 15 18 21 21 21 20 19 18 17 16 17 22 26 26 25 23 21 22 23 22 23 24 25 23 20 16 14 14 16 17 18 20 25 29 28 27 26
0 1 2 4 6 9 13 16 18 19 21 21 21 20 20 19 17 17 20 22 22 21 20 20 21 21 19 19 19 20 18 16 13 11 10 11 12 12 14 18 22 23 21 19
1 2 3 4 6 8 10 13 16 18 19 19 18 18 18 17 17 16 16 16 16 16 18 20 20 18 16 15 15 14 12 12 12 12 11 11 11 12 13 15 18 18 16 15
3 3 4 4 4 4 6 10 14 16 17 16 15 16 15 14 13 13 13 13 12 14 17 18 16 14 11 11 10 9 9 10 12 13 13 12 13 12 12 13 14 14 14 14
3 3 3 3 4 3 5 8 10 11 12 12 12 13 12 10 9 9 10 11 12 13 15 15 13 10 7 6 6 6 7 9 12 12 11 11 11 9 8 8 8 10 12 13
4 4 4 4 5 4 3 4 5 6 7 8 8 9 8 6 6 7 7 8 9 10 11 11 9 6 4 4 4 4 5 6 8 9 9 9 7 5 3 2 2 4 6 8
3 4 5 5 5 4 2 2 2 3 4 5 4 4 4 4 4 3 4 5 5 6 8 7 5 3 2 3 3 3 3 3 4 5 6 6 5 2 1 0 0 0 1 2
2 3 4 4 4 4 3 2 2 2 3 3 2 1 2 2 1 1 1 2 3 4 4 4 3 1 1 3 3 2 1 1 2 3 3 3 2 1 0 0 0 0 0 0
3 3 3 3 3 3 3 2 2 1 1 1 1 0 1 1 1 1 1 1 2 3 2 2 1 1 0 1 2 1 0 0 1 1 1 1 0 0 0 0 0 0 0 0
2 2 2 2 2 2 1 1 1 1 1 2 2 1 1 2 2 2 1 1 1 2 2 1 1 0 0 0 0 0 0 0 0 0 0 0 0 0 0 0 0 0 0 0
1 1 1 1 1 1 0 0 0 0 1 2 2 2 2 2 2 2 2 2 1 1 2 1 0 0 0 0 0 0 0 0 0 0 0 0 0 0 0 0 0 0 0 0
1 1 1 0 0 0 0 0 0 0 0 1 1 1 1 1 1 1 1 1 1 0 1 1 0 0 0 0 0 0 0 0 0 0 0 0 0 0 0 0 0 0 0 0
2 2 1 0 0 0 0 0 0 0 0 0 0 0 0 0 0 0 0 0 0 0 0 0 0 0 0 0 0 0 0 0 0 0 0 0 0 0 0 0 0 0 0 0
2 1 1 0 0 0 0 0 0 0 0 0 0 0 0 0 0 0 0 0 0 0 0 0 0 0 0 0 0 0 0 0 0 0 0 0 0 0 0 0 0 0 0 0
1 0 0 0 0 0 0 0 0 0 0 0 0 0 0 0 0 0 0 0 0 0 0 0 0 0 0 0 0 0 0 0 0 0 0 0 0 0 0 0 0 0 0 0
0 0 0 0 0 0 0 0 0 1 0 0 0 0 0 0 0 0 0 0 0 0 0 0 0 0 0 0 0 0 0 0 0 0 0 0 0 0 0 0 0 0 0 0
0 0 0 0 0 0 0 0 0 0 0 0 0 0 0 0 0 0 0 0 0 0 0 0 0 0 0 0 0 0 0 0 0 0 0 0 0 0 0 0 0 0 0 0
1 0 0 0 0 0 0 0 0 0 0 0 0 0 0 0 0 0 0 0 0 0 0 0 0 0 0 0 0 0 0 0 0 0 0 0 0 0 0 0 0 0 0 0
2 1 0 0 0 0 0 0 0 0 0 0 0 0 0 0 0 0 0 0 0 0 0 0 0 0 0 0 0 0 0 0 0 0 0 0 0 0 0 0 0 0 0 0
2 1 0 0 0 0 0 0 0 0 0 0 0 0 0 0 0 0 0 0 0 0 0 0 0 0 0 0 0 0 0 0 0 0 0 0 0 0 0 0 0 0 0 0
1 0 0 0 0 0 0 0 0 0 0 0 0 0 0 0 0 0 0 0 0 0 0 0 0 0 0 0 0 0 0 0 0 0 0 0 0 0 0 0 0 0 0 0

GEFSNGP_con_prob3kmehi_222.txt.gz
EHI
0 0 0 0 0 0 0 0 1 2 6 13 22 29 32 35 35 35 36 39 41 45 51 54 58 60 62 66 71 73 72 70 66 61 60 62 64 64 61 55 51 48 45 44
0 0 0 0 0 0 0 0 1 3 9 17 26 31 34 36 36 36 38 39 41 47 53 56 58 58 59 62 66 70 70 67 63 60 60 61 62 61 57 52 50 47 44 44
0 0 0 0 0 0 1 2 4 8 16 24 30 34 36 38 37 38 39 38 39 45 52 56 56 55 54 55 57 61 62 59 55 55 56 56 56 55 52 50 48 46 44 44
0 0 0 1 1 1 3 7 10 15 24 29 32 33 36 37 38 38 37 36 35 38 44 50 51 50 49 49 49 50 51 48 45 46 48 48 50 50 49 48 47 45 43 43
0 0 0 1 1 1 4 10 14 20 28 32 31 29 30 33 35 36 35 33 33 33 38 44 46 45 45 45 45 44 42 40 38 39 39 41 45 47 45 44 43 41 39 39
0 0 1 2 1 1 4 11 15 22 30 33 30 27 27 29 32 32 32 31 32 34 38 41 42 42 42 40 41 41 41 39 38 37 37 39 41 42 41 40 38 34 32 34
0 1 3 4 5 5 9 15 19 23 29 32 31 29 29 28 30 31 31 32 33 36 38 39 39 39 38 37 37 39 40 39 37 35 35 36 36 35 35 35 33 29 27 28
2 3 5 9 11 14 18 21 22 23 26 28 27 26 27 28 29 30 32 33 33 34 34 34 35 36 36 35 36 36 36 35 33 31 29 29 29 28 28 28 27 25 23 21
4 5 8 11 14 17 20 21 19 19 22 24 22 20 24 27 28 29 30 32 32 31 31 31 32 33 33 32 34 33 31 29 27 25 23 23 23 22 22 22 22 21 18 15
4 5 7 10 12 13 15 16 15 16 18 19 19 18 22 27 29 29 28 29 29 29 30 31 32 32 31 30 29 28 26 23 20 17 17 18 18 18 17 17 17 16 14 13
4 5 6 8 10 11 12 13 13 13 14 16 18 18 21 26 28 26 24 23 24 26 29 30 31 31 31 29 26 24 21 17 14 12 12 14 14 13 11 10 9 9 9 10
5 5 7 8 9 11 12 13 13 13 13 15 17 17 19 23 23 20 19 19 21 24 25 26 27 28 27 26 24 21 17 13 11 10 11 12 11 9 6 4 3 3 4 5
5 6 7 7 8 9 10 11 11 11 12 13 14 14 16 17 16 15 16 17 19 20 19 20 23 23 22 21 19 15 11 9 8 9 9 10 10 8 5 2 0 0 1 1
5 6 7 7 6 7 7 7 7 7 8 9 9 9 10 11 10 10 13 16 16 16 15 16 17 17 17 16 14 10 7 6 6 7 7 8 8 7 6 3 1 1 1 0
5 5 6 6 6 5 4 4 4 5 5 6 5 4 5 6 6 8 10 12 13 12 13 13 13 13 13 12 10 8 6 5 6 6 6 6 6 6 5 3 2 2 2 1
3 4 4 4 5 4 4 3 3 4 4 5 4 4 3 3 4 6 7 7 9 10 10 11 11 11 10 9 8 7 5 5 5 5 6 5 4 3 3 2 2 2 2 1
3 3 2 2 4 5 4 4 4 3 3 3 2 3 4 3 4 5 6 6 7 8 8 8 9 10 9 8 5 4 3 2 2 3 3 3 2 2 1 1 2 2 1 0
3 3 2 2 3 4 4 3 3 2 1 1 1 3 4 4 4 4 6 7 7 7 7 6 6 8 8 6 5 3 1 1 0 1 1 2 2 2 2 2 2 1 0 0
1 2 2 2 2 2 2 1 1 1 1 1 1 2 2 3 4 5 7 8 6 6 7 5 4 5 6 5 4 2 1 0 0 0 0 1 2 3 2 1 1 1 0 0
0 1 1 1 1 1 2 1 1 1 1 1 1 1 1 2 3 5 7 8 6 5 5 4 4 4 5 4 2 1 0 0 0 0 0 0 1 2 1 0 1 1 0 0
0 0 0 0 1 1 3 3 3 2 2 2 2 2 2 2 3 5 7 7 6 5 4 3 4 4 3 2 1 0 0 0 0 0 0 0 0 0 0 0 0 0 0 0
0 0 0 1 1 2 3 3 2 1 1 1 2 3 3 3 3 5 6 6 5 4 3 3 3 2 1 1 0 0 0 0 0 0 0 0 0 0 0 0 0 0 0 0
0 0 0 1 1 2 2 1 1 0 0 0 1 1 2 2 3 3 3 4 3 2 2 2 1 1 0 0 0 0 0 0 0 0 0 0 0 0 0 0 0 0 0 0
0 0 0 0 1 1 1 0 0 0 0 0 0 0 1 1 1 1 1 1 1 0 1 1 0 0 0 1 0 0 0 0 0 0 0 0 0 0 0 0 0 0 0 0
0 0 0 0 0 0 0 0 0 0 0 0 0 0 0 0 0 1 1 0 0 0 0 0 0 0 0 0 0 0 0 0 0 0 0 0 0 0 0 0 0 0 0 0
0 0 0 0 0 0 0 0 0 0 0 0 0 0 0 0 0 1 1 0 0 0 0 0 0 0 0 0 0 0 0 0 0 0 0 0 0 0 0 0 0 0 0 0
0 0 0 0 0 0 0 0 0 0 0 0 0 0 0 0 0 1 0 0 0 0 0 0 0 0 0 0 0 0 0 0 0 0 0 0 0 0 0 0 0 0 0 0

GEFSNGP_con_prob3kmehi_228.txt.gz
EHI
0 0 0 0 0 0 0 1 2 5 8 11 15 18 18 18 22 24 22 22 23 27 30 34 37 38 38 39 43 44 42 39 36 36 37 36 35 34 33 31 28 27 26 25
0 0 0 0 0 0 2 3 5 8 12 13 17 20 21 21 24 26 26 25 26 28 31 33 36 37 37 37 39 40 39 37 35 33 33 32 32 32 32 30 28 27 26 24
0 0 0 0 1 3 5 6 8 11 13 15 18 20 20 21 24 25 26 26 27 28 29 31 34 36 36 35 34 34 34 33 31 29 28 28 28 28 28 28 26 25 23 21
0 0 0 1 3 5 7 8 10 12 13 15 17 17 17 20 21 21 22 24 25 24 25 28 33 35 34 33 31 30 29 29 28 26 26 26 26 23 22 23 22 20 20 20
0 0 1 2 4 6 7 8 10 11 13 14 15 15 16 19 21 20 20 21 23 22 23 25 30 32 32 30 28 27 26 26 27 27 26 26 24 20 17 17 17 17 18 18
1 1 2 3 4 4 6 7 8 9 10 11 13 14 15 18 21 21 20 21 22 22 22 23 24 26 27 27 26 24 23 25 27 27 26 25 23 19 16 16 17 16 14 13
2 3 3 3 4 4 4 5 6 7 7 8 9 11 13 16 18 19 21 22 22 21 21 19 19 21 24 25 24 23 22 23 24 24 23 22 20 18 17 17 16 13 9 8
2 2 2 2 3 4 4 4 5 6 7 7 7 8 11 14 15 16 17 20 20 18 18 17 18 20 23 24 25 25 22 21 20 19 18 16 15 15 15 15 12 8 5 4
2 2 2 2 3 3 4 5 7 7 7 6 5 6 9 12 13 13 13 15 17 16 16 17 18 19 20 20 22 23 21 18 16 15 13 12 11 12 12 11 8 5 2 1
3 4 5 5 4 3 4 5 7 7 6 5 4 4 6 9 12 13 12 13 15 16 16 17 18 18 17 16 17 19 18 15 13 13 11 10 10 11 10 8 6 4 2 1
4 5 6 6 4 3 3 4 4 4 3 3 3 3 4 7 11 12 12 12 14 15 15 16 17 16 14 14 15 15 14 12 10 10 9 8 6 6 6 5 5 4 4 3
5 5 5 4 3 3 2 2 2 1 1 1 2 3 3 5 8 9 9 11 12 12 12 12 14 14 13 13 14 14 12 10 7 6 5 4 2 2 2 2 2 2 3 3
4 4 3 3 2 2 1 1 1 0 0 0 1 1 2 3 5 5 6 8 8 7 6 7 10 12 11 12 13 12 10 8 5 2 1 1 0 0 0 0 0 0 1 1
2 2 2 2 1 1 1 1 1 1 0 0 0 0 1 1 2 2 3 4 3 3 2 3 6 7 8 9 10 9 8 6 3 1 0 0 0 0 0 0 0 0 0 0
1 1 1 1 1 1 1 1 2 1 0 0 0 0 0 0 0 1 1 1 1 1 1 2 3 4 6 6 6 6 6 4 2 0 0 0 0 0 0 0 0 0 0 0
0 0 0 0 0 0 0 1 1 1 0 0 0 0 0 0 0 0 0 0 0 0 1 1 1 3 5 5 4 3 3 2 0 0 0 0 0 0 0 0 0 0 0 0
0 0 0 0 0 0 0 0 0 0 0 0 0 0 0 0 0 0 0 0 0 0 0 0 0 1 3 4 3 1 1 0 0 0 0 0 0 0 0 0 0 0 0 0
0 0 0 0 0 0 0 0 0 0 0 0 0 0 0 0 0 0 0 0 0 0 0 0 0 0 2 3 3 1 0 0 0 0 0 0 0 0 0 0 0 0 0 0
0 0 0 0 0 0 0 0 0 0 0 0 0 0 0 0 0 0 0 0 0 0 0 0 0 1 2 3 3 2 1 0 0 0 0 0 0 0 0 0 0 0 0 0
0 0 0 0 0 0 0 0 0 0 0 0 0 0 0 0 0 0 0 0 0 0 0 0 0 1 2 3 3 2 1 0 0 0 0 0 0 0 0 0 0 0 0 0
0 0 0 0 0 0 0 0 0 0 0 0 0 0 0 0 0 0 0 0 0 0 0 0 0 1 2 3 3 2 1 0 0 0 0 0 0 0 0 0 0 0 0 0
0 0 0 0 0 0 0 0 0 0 0 0 0 0 0 0 0 0 0 0 0 0 0 0 0 1 2 3 3 2 1 0 0 0 0 0 0 0 0 0 0 0 0 0
0 0 0 0 0 0 0 0 0 0 0 0 0 0 0 0 0 0 0 0 0 0 0 0 0 0 1 2 2 1 0 0 0 0 0 0 0 0 0 0 0 0 0 0
0 0 0 0 0 0 0 0 0 0 0 0 0 0 0 0 0 0 0 0 0 0 0 0 0 0 0 1 1 0 0 0 0 0 0 0 0 0 0 0 0 0 0 0
0 0 0 0 0 0 0 0 0 0 0 0 0 0 0 0 0 0 0 0 0 0 0 0 0 0 0 0 0 0 0 0 0 0 0 0 0 0 0 0 0 0 0 0
0 0 0 0 0 0 0 0 0 0 0 0 0 0 0 0 0 0 0 0 0 0 0 0 0 0 0 0 0 0 0 0 0 0 0 0 0 0 0 0 0 0 0 0
0 0 0 0 0 0 0 0 0 0 0 0 0 0 0 0 0 0 0 0 0 0 0 0 0 0 0 0 0 0 0 0 0 0 0 0 0 0 0 0 0 0 0 0

GEFSNGP_con_prob3kmehi_234.txt.gz
EHI
0 0 0 0 0 0 0 0 0 1 3 6 8 10 11 12 12 13 13 13 11 8 8 11 18 24 25 25 25 26 28 29 29 29 29 26 22 22 22 21 19 17 15 13
0 0 0 0 0 0 0 0 0 2 5 7 9 11 11 11 11 12 13 13 12 9 8 13 19 24 25 24 22 22 24 25 25 26 26 23 20 18 20 20 20 19 17 15
0 0 0 0 1 1 1 0 1 3 6 9 11 12 12 11 11 12 12 13 13 11 10 14 19 23 23 21 19 19 19 20 21 23 23 20 17 16 17 18 18 19 18 17
0 0 0 1 2 2 2 2 2 5 7 10 11 12 11 11 11 12 13 13 13 13 12 14 17 18 19 19 19 18 17 17 18 19 19 18 17 15 15 15 15 16 16 16
0 0 0 1 3 3 3 3 2 4 7 9 10 9 8 7 9 11 12 12 12 13 14 14 14 14 15 17 18 18 17 17 17 16 17 18 16 14 13 13 13 13 13 13
0 0 0 1 2 2 3 2 1 3 5 6 5 5 3 3 5 8 10 11 11 11 12 12 11 11 12 14 15 16 17 18 17 16 16 18 17 15 13 12 11 11 10 9
0 0 0 1 1 1 1 1 1 1 3 3 3 2 2 3 4 7 9 10 10 10 11 10 9 8 9 10 12 14 16 16 16 16 16 17 18 17 14 12 11 10 8 7
0 0 0 1 2 1 1 1 2 1 1 3 4 4 5 5 6 7 9 9 9 9 11 11 9 8 8 10 11 11 12 13 14 14 16 17 17 16 15 13 12 11 9 7
1 1 1 2 3 3 2 3 3 2 1 3 4 5 6 6 6 6 7 9 8 8 11 12 11 10 11 11 11 10 9 9 10 12 15 16 16 15 14 13 13 12 9 7
2 2 3 3 3 2 3 3 3 3 3 3 3 3 4 5 5 4 6 9 9 9 11 12 12 12 13 13 11 9 8 7 7 9 12 13 13 12 12 12 12 10 8 6
3 3 2 2 1 1 1 2 2 2 2 2 2 1 2 3 4 4 5 7 9 10 11 12 13 13 13 13 12 11 8 7 7 7 9 9 8 7 8 8 8 6 5 5
2 1 1 1 0 0 0 1 1 1 1 1 1 0 1 1 2 2 3 4 7 9 9 9 10 10 10 11 12 11 9 7 6 6 6 4 3 3 3 3 2 2 2 3
1 0 0 0 0 0 0 0 0 0 0 0 0 0 0 0 0 1 2 3 4 6 6 6 6 6 6 8 10 10 8 6 4 3 3 1 1 1 1 0 0 0 1 1
0 0 0 0 0 0 0 0 0 0 0 0 0 0 0 0 0 0 1 1 1 3 3 3 2 2 3 6 8 7 6 4 2 1 1 0 0 0 0 0 0 0 0 0
0 0 0 0 0 0 0 0 0 0 0 0 0 0 0 0 0 0 0 0 0 1 1 1 1 1 2 4 5 5 4 2 1 0 0 0 0 0 0 0 0 0 0 0
0 0 0 0 0 0 0 0 0 0 0 0 0 0 0 0 0 0 0 0 0 0 0 0 0 0 1 3 3 4 3 1 0 0 0 0 0 0 0 0 0 0 0 0
0 0 0 0 0 0 0 0 0 0 0 0 0 0 0 0 0 0 0 0 0 0 0 0 0 0 1 2 2 2 2 1 0 0 0 0 0 0 0 0 0 0 0 0
0 0 0 0 0 0 0 0 0 0 0 0 0 0 0 0 0 0 0 0 0 0 0 0 0 0 1 1 1 1 1 0 0 0 0 0 0 0 0 0 0 0 0 0
0 0 0 0 0 0 0 0 0 0 0 0 0 0 0 0 0 0 0 0 0 0 0 0 0 0 0 0 0 0 0 0 0 0 0 0 0 0 0 0 0 0 0 0
0 0 0 0 0 0 0 0 0 0 0 0 0 0 0 0 0 0 0 0 0 0 0 0 0 0 0 0 0 0 0 0 0 0 0 0 0 0 0 0 0 0 0 0
0 0 0 0 0 0 0 0 0 0 0 0 0 0 0 0 0 0 0 0 0 0 0 0 0 0 0 0 0 0 0 0 0 0 0 0 0 0 0 0 0 0 0 0
0 0 0 0 0 0 0 0 0 0 0 0 0 0 0 0 0 0 0 0 0 0 0 0 0 0 0 0 0 0 0 0 0 0 0 0 0 0 0 0 0 0 0 0
0 0 0 0 0 0 0 0 0 0 0 0 0 0 0 0 0 0 0 0 0 0 0 0 0 0 0 0 0 0 0 0 0 0 0 0 0 0 0 0 0 0 0 0
0 0 0 0 0 0 0 0 0 0 0 0 0 0 0 0 0 0 0 0 0 0 0 0 0 0 0 0 0 0 0 0 0 0 0 0 0 0 0 0 0 0 0 0
0 0 0 0 0 0 0 0 0 0 0 0 0 0 0 0 0 0 0 0 0 0 0 0 0 0 0 0 0 0 0 0 0 0 0 0 0 0 0 0 0 0 0 0
0 0 0 0 0 0 0 0 0 0 0 0 0 0 0 0 0 0 0 0 0 0 0 0 0 0 0 0 0 0 0 0 0 0 0 0 0 0 0 0 0 0 0 0
0 0 0 0 0 0 0 0 0 0 0 0 0 0 0 0 0 0 0 0 0 0 0 0 0 0 0 0 0 0 0 0 0 0 0 0 0 0 0 0 0 0 0 0

GEFSNGP_con_prob3kmehi_240.txt.gz
EHI
0 0 0 0 0 0 0 0 1 1 1 2 5 9 12 17 22 24 27 30 31 28 28 32 37 41 45 46 47 47 45 42 40 38 35 34 35 38 40 38 36 35 32 28
0 0 0 0 0 0 0 1 1 1 1 2 5 9 14 18 21 24 27 29 28 26 26 30 35 40 43 45 46 47 46 43 42 39 36 33 33 34 38 38 37 36 33 31
0 0 0 0 0 0 0 1 1 1 2 4 6 10 15 17 20 23 25 25 24 23 23 25 30 35 40 42 44 45 46 44 43 42 37 32 30 32 34 37 37 35 32 32
0 0 0 0 0 0 0 0 0 1 3 6 8 11 13 15 19 21 22 22 21 20 21 22 24 29 34 39 41 41 41 41 42 40 34 30 30 31 34 36 35 32 29 29
0 0 0 0 0 0 0 0 1 2 4 7 10 11 12 14 18 20 19 20 20 21 22 24 24 26 31 35 37 36 36 36 35 33 29 26 27 30 31 32 31 27 25 26
0 0 0 0 0 0 0 1 2 4 5 7 10 12 14 17 20 18 16 18 20 22 25 28 28 27 29 32 33 31 30 28 26 25 25 24 24 26 27 26 25 24 23 23
0 0 0 0 0 0 1 3 5 4 5 7 11 15 18 20 20 17 16 18 20 22 26 29 30 28 27 28 27 25 24 21 19 20 22 23 23 23 23 22 22 22 20 18
0 0 1 1 1 2 5 7 7 5 5 8 12 16 19 21 19 16 17 19 19 20 22 24 24 24 23 22 21 21 21 20 18 17 19 21 22 22 22 21 20 18 16 14
1 2 3 3 3 5 8 8 7 6 7 8 11 15 17 17 16 15 15 15 15 15 17 18 18 18 17 17 17 19 21 20 18 17 16 19 22 22 21 19 17 15 14 13
2 3 3 4 5 6 7 7 7 8 9 9 11 13 13 13 13 12 11 10 10 12 15 17 16 14 13 13 16 18 20 20 18 15 14 15 18 19 18 17 16 14 13 13
3 3 4 5 5 5 5 6 8 10 10 11 11 11 10 9 10 10 9 8 10 12 15 17 16 13 11 12 15 19 20 19 17 13 11 12 12 11 11 12 12 12 12 12
4 4 5 6 5 4 4 6 7 9 11 11 11 10 9 8 8 9 9 8 9 12 14 15 14 11 10 11 14 17 20 19 15 11 10 9 8 7 6 6 6 6 7 8
6 6 6 5 4 4 5 5 6 7 8 9 9 9 9 8 8 8 8 8 10 11 11 10 10 8 8 10 12 14 16 15 11 8 8 8 8 7 6 3 2 2 2 2
5 5 4 3 3 3 3 3 3 3 4 5 6 7 7 8 8 6 6 8 10 10 8 7 6 5 6 8 10 11 11 9 7 6 6 7 7 8 6 4 2 1 0 0
2 2 1 1 1 1 1 1 1 1 1 2 3 4 5 6 6 4 4 6 7 8 6 4 3 3 4 5 7 8 8 7 6 6 6 6 5 5 4 3 1 1 0 0
1 0 0 0 0 0 0 0 0 0 0 0 1 1 2 3 3 1 2 3 4 5 5 4 3 3 3 3 4 6 6 5 4 5 5 4 4 3 3 2 1 0 0 0
1 0 0 0 0 0 0 0 0 0 0 0 0 0 1 1 1 0 1 1 2 2 4 4 3 3 2 2 3 4 4 3 2 3 4 3 2 2 2 1 0 0 0 0
1 0 0 0 0 0 0 0 0 0 0 0 0 0 1 1 0 0 1 1 1 1 2 3 3 2 2 2 2 3 3 3 3 3 2 2 2 2 1 1 0 0 0 0
1 0 0 0 0 0 0 0 0 0 0 0 0 0 0 0 0 0 1 2 1 1 1 1 1 2 3 2 2 3 3 3 2 2 1 0 1 1 1 0 0 0 0 0
0 0 0 0 0 0 0 0 0 0 0 0 0 0 0 0 0 0 1 1 1 0 0 0 1 2 2 1 1 2 2 1 1 1 0 0 0 0 0 1 1 0 0 0
0 0 0 0 0 0 0 0 0 0 0 0 0 0 0 0 0 0 0 0 0 0 0 0 1 1 1 0 0 1 1 0 0 0 0 0 0 0 0 1 1 0 0 0
0 0 0 0 0 0 0 0 0 0 0 0 0 0 0 0 0 0 0 0 0 0 0 0 0 0 0 0 0 0 0 0 0 0 0 0 0 0 0 1 1 0 0 0
0 0 0 0 0 0 0 0 0 0 0 0 0 0 0 0 0 0 0 0 0 0 0 0 0 0 0 0 0 0 0 0 0 0 0 0 0 0 0 0 0 1 1 0
0 0 0 0 0 0 0 0 0 0 0 0 0 0 0 0 0 0 0 0 0 0 0 0 0 0 0 0 0 0 0 0 0 0 0 0 0 0 0 0 0 1 1 1
0 0 0 0 0 0 0 0 0 0 0 0 0 0 0 0 0 0 0 0 0 0 0 0 0 0 0 0 0 0 0 0 0 0 0 0 0 0 0 0 0 1 1 1
0 0 0 0 0 0 0 0 0 0 0 0 0 0 0 0 0 0 0 0 0 0 0 0 0 0 0 0 0 0 0 0 0 0 0 0 0 0 0 0 0 0 0 1
0 0 0 0 0 0 0 0 0 0 0 0 0 0 0 0 0 0 0 0 0 0 0 0 0 0 0 0 0 0 0 0 0 0 0 0 0 0 0 0 0 0 1 1

GEFSNGP_con_prob3kmehi_246.txt.gz
EHI
0 0 0 0 0 0 0 0 1 3 6 10 13 16 21 28 32 35 38 43 49 52 53 56 57 56 56 55 54 57 61 61 60 59 58 57 56 54 54 54 54 53 50 49
0 0 0 0 0 0 0 0 1 2 4 8 13 17 23 29 33 36 40 42 45 47 50 53 54 53 52 52 53 55 59 61 60 59 58 56 54 53 53 52 52 52 49 45
0 0 0 0 0 0 0 0 1 1 3 9 14 18 24 28 32 36 39 40 41 43 44 47 48 47 45 45 48 50 54 57 60 59 57 54 53 52 51 50 49 47 44 41
0 0 0 0 0 0 0 0 1 2 5 9 14 17 21 25 29 31 33 36 38 39 39 41 42 41 39 37 39 42 46 50 54 55 53 52 51 50 48 47 45 42 39 38
0 0 0 0 0 0 0 1 2 4 7 9 11 13 17 22 26 28 29 32 34 33 34 36 37 38 36 32 30 32 39 44 46 48 48 48 47 45 43 42 40 39 37 35
0 0 0 0 0 0 0 1 3 6 10 12 13 13 17 24 27 28 29 29 28 28 30 32 35 37 34 30 28 30 36 40 41 42 43 42 39 38 37 36 35 35 33 31
0 0 0 0 0 1 2 4 6 9 14 18 18 19 23 28 29 28 28 27 26 26 28 31 35 34 31 29 31 34 37 38 38 38 37 34 32 31 31 31 31 31 29 26
0 0 0 1 3 4 7 9 9 11 16 20 22 24 27 28 27 26 26 24 24 25 28 31 32 31 30 31 34 36 36 35 36 35 32 30 30 29 28 28 29 28 25 22
0 1 1 2 4 7 8 9 8 11 14 17 19 21 24 26 25 24 22 21 21 24 27 29 30 30 31 31 32 33 33 33 34 33 30 30 30 30 28 28 27 26 23 20
2 2 1 2 3 5 6 6 6 8 11 14 16 17 20 23 23 21 20 20 22 24 27 29 31 32 32 31 29 29 29 31 31 29 29 31 31 28 26 25 25 26 23 20
3 2 1 1 2 3 5 5 6 7 9 12 14 16 19 21 20 20 20 21 24 26 27 29 31 31 31 30 29 26 25 26 25 23 26 28 26 22 18 17 18 20 20 17
4 3 2 1 2 4 5 4 5 6 7 10 13 15 17 17 17 17 18 20 22 24 26 27 28 30 31 31 30 26 23 20 16 17 22 23 21 16 11 8 8 9 9 9
4 3 1 1 2 3 4 3 4 6 7 10 12 14 15 15 14 15 16 17 19 21 23 24 26 28 29 29 29 28 22 15 11 11 16 19 17 14 9 5 3 2 2 2
4 3 1 1 2 3 3 3 4 6 8 9 11 13 13 13 13 14 16 17 18 19 20 22 23 24 24 24 26 26 20 12 8 9 12 14 15 13 10 6 4 2 0 0
2 1 0 1 3 3 3 4 4 5 7 8 10 11 11 11 13 14 15 16 17 16 17 19 20 20 20 19 21 21 16 10 8 9 11 11 11 10 7 6 5 3 1 0
1 0 0 1 2 2 2 4 4 5 5 6 8 8 8 9 11 14 14 13 14 13 14 16 16 15 15 15 15 15 13 9 7 8 9 8 6 5 3 2 3 3 2 1
1 1 1 3 3 2 2 3 3 3 3 4 6 6 6 7 10 13 12 11 12 13 12 12 11 10 11 12 12 11 9 6 4 4 4 3 2 1 1 0 1 2 1 0
2 3 4 5 4 3 3 2 1 1 1 2 4 5 5 6 8 9 10 11 11 11 10 8 7 6 8 9 8 7 5 3 1 1 1 0 0 0 0 0 0 0 0 0
3 3 5 5 4 3 3 2 1 1 2 3 3 3 4 3 4 6 7 8 8 8 7 5 4 5 5 5 4 3 2 1 0 0 0 0 0 0 1 1 1 1 0 0
1 2 3 3 3 2 2 2 1 1 3 3 2 1 1 1 2 3 4 5 5 5 4 4 4 5 4 2 1 1 0 0 0 0 0 0 0 0 1 2 2 1 1 1
1 1 2 1 1 1 1 1 0 0 1 1 0 0 0 0 1 2 2 2 3 2 2 2 3 3 2 1 0 0 0 0 0 0 0 0 0 0 0 1 1 1 1 2
2 2 2 2 2 1 0 0 0 0 0 0 0 0 0 0 0 0 0 1 1 1 0 1 1 1 1 0 0 0 0 0 0 0 0 0 0 0 0 0 0 0 1 1
3 3 3 3 3 2 1 0 0 0 0 0 0 0 0 0 0 0 0 0 0 0 0 0 0 0 0 0 0 0 0 0 0 0 0 0 0 0 0 0 0 0 0 0
3 3 3 3 3 2 1 0 0 0 0 0 0 0 0 0 0 0 0 0 0 0 0 0 0 0 0 0 0 0 0 0 0 0 0 0 0 0 0 0 0 0 0 0
3 3 3 2 2 1 0 0 0 0 0 0 0 0 0 0 0 0 0 0 0 0 0 0 0 0 0 0 0 0 0 0 0 0 0 0 0 0 0 0 0 0 0 0
2 2 1 1 1 0 0 0 0 0 0 0 0 0 0 0 0 0 0 0 0 0 0 0 0 0 0 0 0 0 0 0 0 0 0 0 1 1 0 0 0 0 0 0
1 1 0 0 0 0 0 0 0 0 0 0 0 0 0 0 0 0 0 0 0 0 0 0 0 0 0 0 0 0 0 0 0 0 0 1 2 2 1 0 0 0 0 0